ICT,Max TemperatureF,Mean TemperatureF,Min TemperatureF,Max Dew PointF,MeanDew PointF,Min DewpointF,Max Humidity, Mean Humidity, Min Humidity, Max Sea Level PressureIn, Mean Sea Level PressureIn, Min Sea Level PressureIn, Max VisibilityMiles, Mean VisibilityMiles, Min VisibilityMiles, Max Wind SpeedMPH, Mean Wind SpeedMPH, Max Gust SpeedMPH,PrecipitationIn, CloudCover, Events, WindDirDegrees
2012-2-1,80,74,68,68,66,64,94,77,58,30.01,29.93,29.86,6,6,4,6,3,,0.00,5,,163
2012-2-2,86,76,66,68,66,63,94,71,45,30.01,29.93,29.83,6,6,1,8,4,,0.00,5,,146
2012-2-3,86,77,68,68,65,63,94,70,45,30.04,29.94,29.83,6,6,3,30,4,,0.00,3,Rain-Thunderstorm,135
2012-2-4,84,72,60,64,62,59,100,70,45,30.04,29.94,29.83,6,5,1,5,2,,0.00,1,,68
2012-2-5,87,73,59,64,59,50,100,64,27,30.01,29.90,29.80,5,4,3,8,3,,0.00,1,,200
2012-2-6,89,73,57,61,57,54,94,60,29,29.95,29.84,29.74,6,6,6,7,2,,0.00,,,107
2012-2-7,87,72,57,59,53,45,94,52,25,29.95,29.85,29.77,6,6,6,7,3,,0.00,3,,91
2012-2-8,87,71,55,61,54,50,94,57,27,29.98,29.87,29.80,,,,5,1,,0.00,,,110
2012-2-9,91,74,57,61,57,48,100,62,23,29.95,29.86,29.77,5,4,1,7,2,,0.00,1,,224
2012-2-10,89,71,53,61,56,52,94,59,27,30.01,29.90,29.80,6,5,5,5,3,,0.00,6,,65
2012-2-11,87,73,59,63,59,57,100,63,38,30.01,29.90,29.80,4,3,3,7,3,,0.00,,,62
2012-2-12,91,76,60,72,58,46,88,55,22,30.01,29.89,29.80,6,4,2,10,4,,0.00,3,,212
2012-2-13,89,73,57,72,59,50,89,59,26,30.01,29.91,29.83,5,4,4,6,2,,0.00,1,,84
2012-2-14,89,73,57,63,57,54,94,59,29,30.01,29.89,29.80,4,4,3,7,2,,0.00,,,52
2012-2-15,89,73,57,61,55,48,94,59,24,29.95,29.85,29.74,5,4,2,6,2,,0.00,,,109
2012-2-16,89,73,57,61,56,48,94,60,24,29.98,29.86,29.77,5,4,2,6,3,,0.00,,,92
2012-2-17,82,70,59,64,59,54,94,67,37,29.95,29.86,29.80,4,3,2,6,2,,0.00,6,,154
2012-2-18,89,74,60,66,63,59,94,71,40,29.95,29.87,29.77,3,2,1,6,2,,0.00,1,,35
2012-2-19,86,78,69,66,62,59,88,56,40,29.98,29.86,29.77,6,6,2,9,4,,0.00,4,,173
2012-2-20,87,78,69,63,58,54,73,51,31,29.95,29.83,29.74,6,5,3,9,6,,0.00,3,,165
2012-2-21,87,74,62,63,59,52,94,60,29,30.04,29.80,29.68,6,3,2,14,4,,0.00,3,,205
2012-2-22,91,76,60,63,56,50,88,56,24,29.86,29.77,29.65,3,2,2,6,1,,0.00,,,257
2012-2-23,93,75,57,61,54,41,94,52,16,29.83,29.72,29.65,4,3,1,8,3,,0.00,,,216
2012-2-24,91,73,55,59,54,48,94,53,25,29.89,29.76,29.68,3,3,2,6,2,,0.00,,,40
2012-2-25,93,75,57,59,54,43,94,54,18,29.86,29.76,29.65,5,3,1,6,4,,0.00,,,84
2012-2-26,82,70,57,63,56,50,94,67,32,29.86,29.75,29.65,2,1,1,5,2,,0.00,,,44
2012-2-27,93,76,59,61,54,37,94,53,14,29.86,29.73,29.62,2,2,0,10,3,,0.00,,Fog,161
2012-2-28,91,73,55,63,52,41,94,47,17,29.80,29.69,29.62,3,2,1,14,3,,0.00,,,187
2012-2-29,91,73,55,57,54,46,88,53,21,29.86,29.75,29.65,4,2,2,6,2,,0.00,,,130